Location: Unspecified
(0.0000°N, 0.0000°E)
Time: 23:45:08
(UTC+00:00)

N. Korean satellite - Pass Details

Date: 22 April 2017
Orbit: 462 x 516 km, 97.2° (Epoch: 15 August)

Event Time Altitude Azimuth Distance (km) Brightness Sun altitude
Rises 18:31:10 0° 163° (SSE) 2,500 9.9 -8.0°
Reaches altitude 10° 18:33:14 10° 159° (SSE) 1,617 8.9 -8.5°
Maximum altitude 18:36:39 58° 79° (E) 540 6.5 -9.3°
Drops below altitude 10° 18:40:01 10° 359° (N) 1,600 9.4 -10.1°
Sets 18:42:04 0° 355° (N) 2,471 10.4 -10.6°
